Hourly Data Report for June 15, 2019

BORDEN AWOS
ONTARIO
Current Station Operator: DND

44°16'20.000" N
79°54'42.000" W
222.50 m
611B002
71534
YBN

Download Data

Hourly Data (June 2019)
Hourly Data Report for June 15, 2019
TIME
LST
Temp Definition
°C
Dew Point Definition
°C
Rel Hum Definition
%
Precip. Amount Definition
mm

Wind Dir Definition
10's deg

Wind Spd Definition
km/h
Visibility Definition
km
Stn Press Definition
kPa
Hmdx Definition


Wind Chill Definition


Weather Definition


00:00 17.6 8.8 56   20 17 14.5 98.40     LegendNANA
01:00 18.4 8.4 52   21 33 14.5 98.34     LegendNANA
02:00 17.8 9.0 56   21 26 14.5 98.27     LegendNANA
03:00 17.7 9.2 58   22 26 14.5 98.24     LegendNANA
04:00 18.2 9.3 56   23 26 14.5 98.24     LegendNANA
05:00 17.5 10.0 61   25 20 14.5 98.34     Rain
06:00 16.2 11.1 72   23 9 14.5 98.34     Rain
07:00 16.5 11.1 70   20 13 14.5 98.31     LegendNANA
08:00 17.3 11.6 69   21 20 14.5 98.26     LegendNANA
09:00 19.6 12.4 63   23 26 14.5 98.22     LegendNANA
10:00 19.9 12.2 61   23 30 14.5 98.22     LegendNANA
11:00 19.4 12.4 64   22 30 14.5 98.21     LegendNANA
12:00 20.7 13.3 63   23 31 14.5 98.20     LegendNANA
13:00 19.3 13.4 69   24 28 14.5 98.21     LegendNANA
14:00 18.4 13.7 74   24 28 14.5 98.23     LegendNANA
15:00 17.4 14.4 83   27 15 14.5 98.28     Drizzle
16:00 11.4 11.1 98   34 20 5.6 98.39     Drizzle
17:00 11.7 11.7 100     0 6.4 98.41     Rain
18:00 12.1 12.1 100     0 9.7 98.40     Rain
19:00 12.7 12.5 99     0 14.5 98.42     LegendNANA
20:00 12.1 12.1 100     0 0.2 98.43     LegendNANA
21:00 11.9 11.9 100   3 4 0.2 98.51     LegendNANA
22:00 11.7 11.7 100     0 14.5 98.54     LegendNANA
23:00 10.6 10.6 100     0 2.3 98.56     LegendNANA

Notes on Data Quality.

Legend

  • E = Estimated
  • M = Missing
  • NA = Not Available*
  • [empty] = Indicates an unobserved value
Date modified: